Regional Weather Roundup
Issued by NWS

Home | Current Version | Previous Version | Graphics & Text | Print | Product List | Glossary On
Versions: 1 2 3 4 5 6 7 8 9 10 11 12 13 14 15 16 17 18 19 20 21 22 23 24 25 26 27 28 29 30 31 32 33 34 35 36 37 38 39 40 41 42 43 44 45 46 47 48 49 50
000
ASUS43 KMPX 230901
RWRMN
WEATHER ROUNDUP FOR MINNESOTA
NATIONAL WEATHER SERVICE TWIN CITIES/CHANHASSEN MN
300 AM CST SUN NOV 23 2014


NOTE: "FAIR" INDICATES FEW OR NO CLOUDS BELOW 12,000 FEET WITH NO
SIGNIFICANT WEATHER AND/OR OBSTRUCTIONS TO VISIBILITY. N/A MEANS
CURRENT SKY AND/OR WEATHER CONDITIONS ARE NOT AVAILABLE.

MNZ060>063-068>070-231000-
   Twin Cities Metro

CITY           SKY/WX    TMP DP  RH WIND       PRES   REMARKS
TWIN CITIES    CLOUDY    49  46  90 S7        29.45F
ST PAUL        CLOUDY    44  44 100 SE6       29.47S FOG
CRYSTAL        CLOUDY    49  46  90 S13       29.43F
LAKEVILLE      CLOUDY    48  48 100 S8        29.46S
EDEN PRAIRIE   CLOUDY    51  48  89 S9        29.44S
SOUTH ST PAUL  CLOUDY    47  46  96 S5        29.46S FOG
LAKE ELMO      CLOUDY    45  45 100 S8        29.47S FOG
$$
MNZ001>005-007-008-013>017-022>024-027-028-231000-
   Northwest Minnesota

CITY           SKY/WX    TMP DP  RH WIND       PRES   REMARKS
BEMIDJI        LGT SNOW  32  32 100 S6        29.38S VSB 3/4 WCI  26
HALLOCK        CLOUDY    34  32  93 S15       29.35R FOG     WCI  24
ROSEAU         CLOUDY    36  30  80 S13       29.37R
WARROAD        CLOUDY    34  30  86 S9        29.38S FOG     WCI  26
THIEF RVR FALL CLOUDY    34  34 100 S7        29.37S WCI  28
CROOKSTON      CLOUDY    34  34 100 S10       29.38S FOG     WCI  26
FOSSTON        CLOUDY    32  30  93 S7        29.37F FOG     WCI  26
DETROIT LAKES  FOG       34  34 100 S6        29.39S VSB 1   WCI  29
MOORHEAD       FOG       34  34 100 S5        29.40S VSB 3/4 WCI  30
PARK RAPIDS    FOG       33  33 100 SE5       29.37S VSB 1/2 WCI  29
MAHNOMEN       CLOUDY    33  32  96 S6        29.38S FOG     WCI  28
$$
MNZ006-009>011-018-025>026-231000-
   North Central Minnesota

CITY           SKY/WX    TMP DP  RH WIND       PRES   REMARKS
BAUDETTE       CLOUDY    33  30  88 S5        29.39F WCI  29
FLAG ISLAND    CLOUDY    32  30  93 SE12      29.38R FOG     WCI  23
INTL FALLS     CLOUDY    33  30  88 S5        29.42S FOG     WCI  29
WASKISH        CLOUDY    34  32  93 CALM      29.40R FOG
BIG FORK       CLOUDY    34  32  93 S5        29.40F FOG     WCI  30
LONGVILLE      FOG       34  34 100 CALM      29.39S VSB 1/2
GRAND RAPIDS   CLOUDY    36  30  80 CALM      29.40F
CRANE LAKE     CLOUDY    32  30  93 CALM      29.46F FOG
ORR            CLOUDY    32  30  93 SE5       29.40F FOG     WCI  27
COOK           CLOUDY    34  32  93 E3        29.43S FOG
WALKER         FOG       32  32 100 S3        29.39R VSB 1/2
$$
MNZ012-019>021-037-231000-
   Northeast Minnesota

CITY           SKY/WX    TMP DP  RH WIND       PRES   REMARKS
DULUTH         DRZL/FOG  35  33  92 SE14G23   29.43F VSB 1/4 WCI  26
ELY            CLOUDY    34  32  93 SE6       29.44S FOG     WCI  29
HIBBING        FOG       34  32  92 CALM      29.42F VSB 1
EVELETH        CLOUDY    34  34 100 SE3       29.44S FOG
DULUTH HARBOR  CLOUDY    37  36  93 E10       29.47F FOG
TWO HARBORS    DRZL/FOG  37  32  81 E3        29.45F VSB 1/2
SILVER BAY     FOG       36  36 100 E8        29.46F VSB 1/2
GRAND MARAIS     N/A     38  33  82 E10       29.53F
G MARAIS ARPRT CLOUDY    30  28  93 E7        29.49F VSB<1/4 WCI  23
$$
MNZ029>031-032-039>041-046>048-054>057-064-231000-
   West Central Minnesota

CITY           SKY/WX    TMP DP  RH WIND       PRES   REMARKS
FERGUS FALLS   CLOUDY    34  34 100 S7        29.42R FOG     WCI  28
WHEATON        CLOUDY    34  30  86 SW6       29.41S WCI  29
MORRIS         CLOUDY    36  34  93 SW6       29.39S
ALEXANDRIA     CLOUDY    35  33  92 SW9       29.40R WCI  28
ELBOW LAKE       N/A     33  32  95 SW7       29.40R WCI  27
WADENA         FOG       34  34 100 S3        29.38R VSB 3/4
GLENWOOD       CLOUDY    36  34  93 SW9       29.40S FOG
APPLETON       CLOUDY    39  34  81 W5        29.40F
BENSON         MIX PCPN  36  34  93 SW3       29.41S
ORTONVILLE     CLOUDY    39  30  70 SW5       29.40S
MADISON        CLOUDY    43  36  75 W5        29.40F
WILLMAR        FAIR      37  36  93 SW9       29.44R
$$
MNZ033>034-036-042>043-049>051-058-059-231000-
   Central Minnesota

CITY           SKY/WX    TMP DP  RH WIND       PRES   REMARKS
ST CLOUD       FOG       37  35  92 S5        29.41F VSB 1/4
SAUK CENTRE    CLOUDY    36  34  94 SW8       29.40S
PAYNESVILLE    CLOUDY    36  34  94 S5        29.42S
AITKIN         HAZE      37  34  87 S3        29.39F VSB<1/4
PINE RIVER     FOG       34  34 100 CALM      29.43F VSB 1/4
BRAINERD       FOG       34  34 100 S3        29.40F VSB 1/4
STAPLES        FOG       34  34 100 S3        29.38F VSB 1/4
LONG PRAIRIE   CLOUDY    34  34 100 S5        29.39F FOG     WCI  30
LITTLE FALLS   FOG       36  34  93 CALM      29.40F VSB 1/4
LITCHFIELD     DRIZZLE   41  41 100 CALM      29.42S
BUFFALO        CLOUDY    43  41  93 CALM      29.44R FOG
MAPLE LAKE     DRIZZLE   42  42  99 S3        29.44R
$$
MNZ037-044-045-052-053-231000-
   East Central Minnesota

CITY           SKY/WX    TMP DP  RH WIND       PRES   REMARKS
PRINCETON      FOG       41  39  93 S5        29.43S VSB 3/4
MORA           FOG       36  36 100 CALM      29.44F VSB 1/4
CAMBRIDGE      CLOUDY    43  36  75 S5        29.42S HAZE
RUSH CITY      FOG       40  39  97 S5        29.44S VSB 1
MOOSE LAKE     FOG       37  37 100 CALM      29.41F VSB 1/2
HINCKLEY       FOG       39  39 100 S7        29.43F VSB 1/4
CLOQUET        SNOW      36  34  93 SE5       29.43F VSB 1/4
MCGREGOR       CLOUDY    36  36 100 CALM      29.42S VSB 1/4
$$
MNZ071>073-080-081-089-090-097-098-231000-
   Southwest Minnesota

CITY           SKY/WX    TMP DP  RH WIND       PRES   REMARKS
MONTEVIDEO     CLOUDY    39  39 100 W3        29.43S
GRANITE FALLS  CLOUDY    39  36  87 N6        29.40F
CANBY          CLOUDY    40  34  79 W6        29.40F
MARSHALL       CLOUDY    43  36  75 N3        29.40S
REDWOOD FALLS  CLOUDY    45  43  93 SW6       29.42R
OLIVIA         MIX PCPN  37  36  93 W5        29.43R
PIPESTONE      CLOUDY    37  37 100 SW8       29.41R FOG
WINDOM         CLOUDY    48  46  93 S8        29.45S FOG
WORTHINGTON    CLOUDY    48  46  93 SW14      29.44F
JACKSON        CLOUDY    48  46  93 S8        29.47S FOG
TRACY          CLOUDY    45  42  88 S13       29.41F
SLAYTON        CLOUDY    44  44 100 S10       29.42F FOG
$$
MNZ065>067-074>077-082>085-091>093-231000-
   South Central Minnesota

CITY           SKY/WX    TMP DP  RH WIND       PRES   REMARKS
MANKATO        CLOUDY    52  48  87 S12G21    29.46F
NEW ULM        CLOUDY    48  48 100 SW6       29.45R FOG
ST JAMES       CLOUDY    52  48  87 S15       29.45F
FAIRMONT       CLOUDY    52  46  82 S15       29.47F
GLENCOE        CLOUDY    47  46  97 S9        29.43S FOG
FARIBAULT      CLOUDY    52  48  87 S7        29.48F
OWATONNA       MOCLDY    52  48  87 S15       29.49S
WASECA         MOCLDY    50  46  87 S17       29.49F
ALBERT LEA     CLOUDY    52  52 100 S13G18    29.50S
$$
MNZ078>079-086>088-094>096-231000-
   Southeast Minnesota

CITY           SKY/WX    TMP DP  RH WIND       PRES   REMARKS
ROCHESTER      CLOUDY    48  47  96 S17       29.53F FOG
RED WING         N/A     52  48  87 S10G16    29.49F
STANTON        MOCLDY    50  47  90 S12       29.46F
DODGE CENTER   CLOUDY    50  48  93 S16       29.51S FOG
WINONA         CLOUDY    54  50  87 S8        29.56S FOG
AUSTIN         CLOUDY    48  48 100 S13       29.52F FOG
PRESTON        CLOUDY    47  46  96 S13       29.55F FOG
$$
ABBREVIATIONS USED IN REMARKS
   TC - TEMPERATURES IN CELSIUS
  WCI - WIND CHILL INDEX
   HX - HEAT INDEX
  VSB - VISIBILITY
$$



USA.gov is the U.S. government's official web portal to all federal, state and local government web resources and services.